Terminal Aerodrome Forecast
Issued by NWS

Home | Current Version | Previous Version | Text Only | Print | Product List | Glossary On
Versions: 1 2 3 4 5 6 7 8 9 10 11 12 13 14 15 16 17 18 19 20 21 22 23 24 25 26 27
549
FTUS41 KCAR 240318 AAA
TAFBHB
TAF AMD
KBHB 240318Z 2403/2424 20010KT P6SM BKN200 WS020/23040KT
     FM240700 24008KT 5SM BR OVC060
     FM241000 32010KT P6SM SCT060
     FM242000 20008KT P6SM SCT200=

USA.gov is the U.S. government's official web portal to all federal, state and local government web resources and services.